Погода в Ургенче

Погода в Ургенче : погода сейчас, прогноз погоды и архив. Всё, что Вы хотите узнать о погоде в Ургенче!

Поиск расширенной информации на нашем сайте:

Полезная информация: туроператоры по абхазии

Другие новости

Новости СМИ2

Главная страница сайта

Новости сайта

02.10.2013

Напоминаем, что на нашем новом сайте вы можете получить высокодетализированные прогнозы погоды по пунктам России, СНГ и мира (включающие важные для авиации метеовеличины, такие как направление и скорость ветра, видимость, явления погоды, количество и форма облачности, нижняя и верхняя граница облачности), а также ознакомиться с разнообразными материалами по авиационной метеорологии и подборкой полезных ссылок на эту тему.

Сайт Метеоцентр.Азия посвящён разработке технологий оптимизации авиаметеорологического обслуживания, включая проектирование и перспективное создание нескольких автоматизированных авиаметеорологических систем:
- система выпуска высокодетальных прогностических карт явлений погоды для нижнего воздушного пространства по России и ближнему зарубежью;
- система верификации прогнозов TAF (выпускаемых синоптиками официальных АМСГ РФ и ближнего зарубежья) и AUTOTAF (выпускаемых сайтом Метеоцентр.Азия) - выявление ошибок, онлайн-сопоставление с фактической погодой METAR, автоматическое внесение коррективов в прогнозы при резком отклонении фактической погоды от прогноза, подсчёт оправдываемости прогнозов по элементам и в целом;
- система обработки, анализа и отображения авиаметеорологической информации для применения провайдерами метеорологической информации.

Рекомендуем: Подробности проекты домов из сип у нас на сайте.

Погода в Ургенче - сегодня

Время (UTC), дата Ветер
(°,м/с) 
Видим.   Явления Облачность Т
(°С)
Тd
(°С)
f(%) Тe
(°С)
Pmin
(гПа)
dP
(гПа)
Po
(мм)
O2
(г/м3)
Тmin Tmax R s Состояние
почвы
06 16.02.17 350 (С) 1000 м  морось  10/10 60 м 
[St]
+0.7 +0.4 98 -1  1011.3  -1.4  749  301  -2.3    0.0     
09 16.02.17 310 (СЗ) 4000 м  {морось}  10/10 180 м 
[St]
+1.9 +0.3 89 -1  1013.1  1.8  750  300           
12 16.02.17 300 (СЗ) 4000 м  {морось}  9/9 400 м 
[Sc]
+2.5 -0.2 82 -1  1015.1  752  300           
18 16.02.17 340 (С) 4000 м    8/3 750 м средняя 
[Sc|Ac trans]
-0.1 -1.3 92 -1  1020.5  1.6  756  305    +2.6     
21 16.02.17 020 (С) 4000 м    8/8 330 м 
[Sc]
+0.3 -1.4 88 -1  1021.3  0.8  756  305           
00 17.02.17 050 (СВ) 4000 м    9/9 300 м 
[Sc]
-0.2 -2 88 -3  1022.2  0.9  757  305           
03 17.02.17 030 (СВ) 4000 м    9/9 300 м 
[Sc]
-0.8 -2.9 86 -3  1023.3  1.1  758  307  -0.8         
06 17.02.17 030 (СВ) 4000 м    9/9 400 м 
[Sc]
-1.2 -4.4 79 -4  1024.7  1.4  759  308  -0.8         
09 17.02.17 010 (С) 10 км    9/9 570 м 
[Sc]
+0.3 -4.4 71 -3  1023.9  -0.8  758  306           
12 17.02.17 040 (СВ) 10 км    9/0 средняя 
[Ac trans]
+1.1 -4.9 64 -2  1022.9  -0.9  758  305           
15 17.02.17 040 (СВ) 10 км    9/9 800 м 
[Sc]
-0.3 -5.6 67 -3  1024.2  1.2  758  307    +1.4       
18 17.02.17 350 (С) 4000 м    5/0 средняя, верхняя 
[Ac trans|Ci fib]
-3.6 -6.1 83 -5  1024.2  -0.2  758  310    +1.4       
21 17.02.17 350 (С) 4000 м    10/0 средняя, верхняя 
[Ac trans|Ci fib]
-3.9 -6.1 85 -5  1024  -0.2  758  311           
03 18.02.17 300 (СЗ) 4000 м    9/0 средняя 
[Ac As]
-4 -7.4 77 -7  1026.4  1.6  760  312  -4.5         
06 18.02.17 320 (СЗ) 4000 м    9/0 средняя 
[Ac As]
-1.9 -8.1 63 -5  1028.4  2.1  762  310  -4.5         
09 18.02.17 290 (З) 4000 м    9/0 средняя 
[Ac As]
+1.2 -7 54 -3  1028.1  -0.1  761  306           
12 18.02.17 290 (З) 4000 м    6/0 верхняя 
[Ci fib]
+0.8 -9 48 -3  1029.8  1.7  763  307           
15 18.02.17 290 (З) 4000 м    ясно 
-3.9 -9.7 64 -5  1033.6  3.4  765  314    +1.8       
18 18.02.17 260 (З) 4000 м    ясно 
-4.5 -10.1 65 -7  1035.8  2.2  767  315    +1.8       
21 18.02.17 240 (ЮЗ) 4000 м    ясно 
-6.1 -10.1 73 -9  1036.8  0.9  768  317           
00 19.02.17 220 (ЮЗ) 4000 м    ясно 
-7.1 -9.6 82 -7  1037  0.2  768  319           
03 19.02.17 170 (Ю) 4000 м    ясно 
-8.6 -10.5 86 -10  1038.9  1.8  769  321  -8.7         
06 19.02.17 200 (Ю) 4000 м    ясно 
-0.6 -5.9 67 -3  1039.8  1.2  770  312  -8.7         
09 19.02.17 200 (Ю) 4000 м    3/3 2000 м 
[Cu hum]
+3.2 -6.7 48 +1  1038.4  -1.2  769  307           
12 19.02.17 200 (Ю) 10 км    ясно 
+3.9 -7 45 +2  1037.7  -0.7  769  306           
Время (UTC), дата Ветер
(°,м/с) 
Видим.   Явления Облачность Т
(°С)
Тd
(°С)
f(%) Тe
(°С)
Pmin
(гПа)
dP
(гПа)
Po
(мм)
O2
(г/м3)
Тmin Tmax R s Состояние
почвы

Для получения пояснительной информации подведите курсор к названию столбца.

ПОГОДА в Ургенче - архив

Всё, что Вы хотите узнать о погоде в Ургенче - удобно и подробно!

Выберите нужную дату (начиная с 1 января 2015* года) и нажмите кнопку "Найти".
Будут отображены архивные сводки погоды по пункту Ургенч, начиная с указанной даты.


Отображать данные в формате CSV (для использования в таблицах Excel)


Внимание! Наш архив погоды предназначен исключительно для личного некоммерческого использования в познавательных целях. Если Вам необходимы официальные справки о состоянии погоды (для производственных, юридических, коммерческих и т.п. целей), обращайтесь в органы Росгидромета.

*Примечание: данная дата относится к архиву по метеостанциям СССР (Россия, СНГ, Балтия).
Архив по метеостанциям Зарубежной Европы и Азии (кроме Китая) хранится 10 дней, по другим регионам земного шара (Китай, Африка, Америка, Австралия, Океания) - 1 день.

Ургенч - район местоположения метеостанции


Название, широта, долгота, высота метеостанции:
Ургенч 41.6°ш. 60.6°д. 101 м над ур. моря [Узбекистан]

Дополнительная информация

В oтличие oт бoльшинства пoгoдных сайтoв мы публикуем пoдрoбную метеoинфoрмацию в детальнoм прoфессиoнальнoм фoрмате.

Характеристики температуры и влажнoсти вoздуха измеряются на высoте 2 м в тени вдали oт зданий и деревьев.
Скoрoсть ветра измеряется на высoте 10 м (на урoвне рoста челoвека скoрoсть ветра ниже в 1.5-2 раза). Если метеoстанция нахoдится в гoрoде или в лесу, тo скoрoсть ветра занижена на 2-4 м/с пo сравнению с oткрытым местoм. Скoрoсть ветра над акватoриями крупных рек и oзёр, а также на вершинах хoлмoв на 2-5 м/с выше, чем в oбычных услoвиях.
Атмoсфернoе давление в разных тoчках местнoсти мoжет значительнo oтличаться oт давления на метеoстанции, в зависимoсти oт услoвий рельефа (при пoдъёме на 10 м давление пoнижается примернo на 1 мм рт.ст.).